Вернуться в каталог

STARLINK-34718

АктивенСвязьVLEO
NORAD 64911·PAYLOAD·🇺🇸 United States

Запущен Jul 26, 2025 с Cape Canaveral Space Force Station

Loading…

Ближайшие Пролёты (ближайшие 24 часа)

TLE

СвежийSource: CelesTrak SupGP

Эпоха: Sep 15, 2026, 04:05 UTC

1 64911C 25157H   26258.17062500  .00006148  00000+0  18165-3 0  2585
2 64911  53.1580 182.8150 0001360  79.4020 250.0956 15.34387338    15

Отслеживайте STARLINK-34718 в реальном времени с AllMySat

Download on the App Store